This is the latest recevied weather packets stored in our database for station/object KB9YVI-11. If no packets are shown the sender has not sent any weather packets the latest 10 day(s).
| Time | Temp. | Humidity | Pressure | Rain* | Wind** | Luminosity | Snow |
|---|---|---|---|---|---|---|---|
| 1777583148 | 17.78° C | 66% | 0 hPa | 0 mm | - | - | - |
| 1777582848 | 17.78° C | 65% | 0 hPa | 0 mm | - | - | - |
| 1777582548 | 17.22° C | 67% | 0 hPa | 0 mm | - | - | - |
| 1777582248 | 17.22° C | 65% | 0 hPa | 0 mm | - | - | - |
| 1777581948 | 17.22° C | 64% | 0 hPa | 0 mm | - | - | - |
| 1777581648 | 17.22° C | 65% | 0 hPa | 0 mm | - | - | - |
| 1777581348 | 17.22° C | 69% | 0 hPa | 0 mm | - | - | - |
| 1777581047 | 17.22° C | 67% | 0 hPa | 0 mm | - | - | - |
| 1777580748 | 16.67° C | 66% | 0 hPa | 0 mm | - | - | - |
| 1777580448 | 16.67° C | 68% | 0 hPa | 0 mm | - | - | - |
| 1777580148 | 16.67° C | 66% | 0 hPa | 0 mm | - | - | - |
| 1777579248 | 16.11° C | 68% | 0 hPa | 0 mm | - | - | - |
| 1777578348 | 16.11° C | 69% | 0 hPa | 0 mm | - | - | - |
| 1777577750 | 16.11° C | 68% | 0 hPa | 0 mm | - | - | - |
| 1777577447 | 16.11° C | 70% | 0 hPa | 0 mm | - | - | - |
| 1777575349 | 15° C | 73% | 0 hPa | 0 mm | - | - | - |
| 1777575048 | 15° C | 70% | 0 hPa | 0 mm | - | - | - |
| 1777573847 | 15° C | 72% | 0 hPa | 0 mm | - | - | - |
| 1777573549 | 15° C | 74% | 0 hPa | 0 mm | - | - | - |
| 1777571450 | 14.44° C | 75% | 0 hPa | 0 mm | - | - | - |
| 1777570248 | 13.89° C | 75% | 0 hPa | 0 mm | - | - | - |
| 1777569350 | 14.44° C | 75% | 0 hPa | 0 mm | - | - | - |
| 1777568749 | 14.44° C | 77% | 0 hPa | 0 mm | - | - | - |
| 1777567849 | 14.44° C | 77% | 0 hPa | 0 mm | - | - | - |
| 1777566949 | 13.89° C | 70% | 0 hPa | 0 mm | - | - | - |
* Rain latest hour (hover to see other rain measurements)
** Current wind speed in m/s (hover to see current wind gust speed)